London, United Kingdom

9:31 PM BST on October 01, 2016 (GMT +0100)
Heathrow

Weather History for EGLL - August, 2013

Change the Weather History Date:

Wednesday, August 28, 2013

  Actual Average Record
Temperature  
Mean Temperature 65 °F -  
Max Temperature 76 °F 69 °F 77 °F (1999)
Min Temperature 54 °F 54 °F 35 °F (1996)
Growing Degree Days 15 (Base 50)    
Moisture  
Dew Point 51 °F    
Average Humidity 60    
Maximum Humidity 100    
Minimum Humidity 26    
Precipitation  
Precipitation 0.00 in - - ()
Sea Level Pressure  
Sea Level Pressure 30.19 in    
Wind  
Wind Speed 4 mph ()    
Max Wind Speed 8 mph    
Max Gust Speed 23 mph    
Visibility 9.0 miles    
Events Fog    
Averages and records for this station are not official NWS values.
T = Trace of Precipitation, MM = Missing Value Source: Averaged Metar Reports

Daily Weather History Graph

Daily Weather History Graph

Search for Another Location

Airport or City:

Trip Planner

Search our weather history database for the weather conditions in past years. The results will help you decide how hot, cold, wet, or windy it might be!

Date:

Astronomy

Aug. 28, 2013 Rise Set
Actual Time 6:08 AM BST 7:56 PM BST
Civil Twilight 5:32 AM BST 8:32 PM BST
Nautical Twilight 4:48 AM BST 9:15 PM BST
Astronomical Twilight 3:59 AM BST 10:04 PM BST
Moon 11:29 PM BST (8/28) 2:40 PM BST (8/28)
Length of Visible Light 14h 59m
Length of Day
13h 48m
Waning Gibbous, 49% of the Moon is Illuminated
Aug 28
Waning Gibbous
Sep 5
New
Sep 12
First Quarter
Sep 19
Full
Sep 27
Last Quarter

Hourly Weather History & Observations

Time (BST) Temp. Dew Point Humidity Pressure Visibility Wind Dir Wind Speed Gust Speed Precip Events Conditions
12:20 AM 60.8 °F 48.2 °F 63% 30.12 in - North 4.6 mph - N/A   Clear
12:50 AM 60 °F 49 °F 56% 30.14 in 19 mi North 3.5 mph - -   Scattered Clouds
12:50 AM 60.8 °F 48.2 °F 63% 30.15 in - North 4.6 mph - N/A   Clear
1:20 AM 59.0 °F 48.2 °F 67% 30.15 in - North 4.6 mph - N/A   Clear
1:50 AM 59.0 °F 50.0 °F 72% 30.15 in 6.2 mi North 4.6 mph - N/A   Unknown
2:20 AM 57.2 °F 50.0 °F 77% 30.15 in 6.2 mi North 4.6 mph - N/A   Unknown
2:50 AM 57 °F 49 °F 67% 30.15 in 15 mi North 3.5 mph - -   Scattered Clouds
2:50 AM 57.2 °F 50.0 °F 77% 30.15 in 6.2 mi North 4.6 mph - N/A   Unknown
3:20 AM 57.2 °F 50.0 °F 77% 30.15 in - North 5.8 mph - N/A   Clear
3:50 AM 55 °F 49 °F 75% 30.16 in 15 mi North 4.6 mph - -  
3:50 AM 55.4 °F 50.0 °F 82% 30.15 in - Variable 3.5 mph - N/A   Clear
4:20 AM 55.4 °F 50.0 °F 82% 30.15 in - North 3.5 mph - N/A   Clear
4:50 AM 55 °F 52 °F 84% 30.17 in 7 mi NNE 5.8 mph - -   Partly Cloudy
4:50 AM 55.4 °F 51.8 °F 88% 30.18 in 6.2 mi NNE 5.8 mph - N/A Fog Patches of Fog
5:20 AM 53.6 °F 51.8 °F 94% 30.18 in 3.1 mi NNE 5.8 mph - N/A Fog Patches of Fog
5:50 AM 53.6 °F 53.6 °F 100% 30.18 in 1.1 mi NE 4.6 mph - N/A   Overcast
6:20 AM 55.4 °F 53.6 °F 94% 30.18 in 2.5 mi NNE 5.8 mph - N/A   Overcast
6:50 AM 56 °F 53 °F 86% 30.20 in 4 mi NNE 4.6 mph - -   Light Haze
6:50 AM 55.4 °F 53.6 °F 94% 30.18 in 2.8 mi NE 4.6 mph - N/A   Haze
7:20 AM 57.2 °F 53.6 °F 88% 30.21 in 4.3 mi Variable 3.5 mph - N/A   Mostly Cloudy
7:50 AM 57 °F 53 °F 81% 30.22 in 5 mi North 3.5 mph - -   Light Haze
7:50 AM 57.2 °F 53.6 °F 88% 30.21 in 4.3 mi North 4.6 mph - N/A   Mostly Cloudy
8:20 AM 57.2 °F 53.6 °F 88% 30.21 in 5.6 mi NE 4.6 mph - N/A   Scattered Clouds
8:50 AM 59.0 °F 53.6 °F 82% 30.21 in 5.6 mi Variable 3.5 mph - N/A   Scattered Clouds
9:20 AM 60.8 °F 53.6 °F 77% 30.24 in 6.2 mi Variable 2.3 mph - N/A   Partly Cloudy
9:50 AM 62 °F 53 °F 64% 30.23 in 8 mi NNE 3.5 mph - -  
9:50 AM 62.6 °F 53.6 °F 72% 30.24 in 6.2 mi NE 4.6 mph - N/A   Partly Cloudy
10:20 AM 64.4 °F 53.6 °F 68% 30.24 in - NNE 4.6 mph - N/A   Clear
10:50 AM 65 °F 53 °F 55% 30.24 in 10 mi NE 3.5 mph - -  
10:50 AM 64.4 °F 53.6 °F 68% 30.24 in - Variable 3.5 mph - N/A   Clear
11:20 AM 66.2 °F 53.6 °F 64% 30.24 in - Variable 3.5 mph - N/A   Clear
11:50 AM 69 °F 53 °F 47% 30.22 in 11 mi NW 3.5 mph - -  
11:50 AM 68.0 °F 53.6 °F 60% 30.21 in - Variable 3.5 mph - N/A   Clear
12:20 PM 69.8 °F 51.8 °F 53% 30.21 in 6.2 mi Variable 3.5 mph - N/A   Partly Cloudy
12:50 PM 71 °F 48 °F 33% 30.22 in 19 mi NNW 3.5 mph - -  
12:50 PM 71.6 °F 50.0 °F 46% 30.21 in 6.2 mi Variable 3.5 mph - N/A   Partly Cloudy
1:20 PM 71.6 °F 48.2 °F 43% 30.21 in 6.2 mi Variable 3.5 mph - N/A   Partly Cloudy
1:50 PM 74 °F 47 °F 28% 30.21 in 16 mi East 4.6 mph - -  
1:50 PM 73.4 °F 46.4 °F 38% 30.21 in - Variable 3.5 mph - N/A   Clear
2:20 PM 75.2 °F 46.4 °F 36% 30.21 in - Variable 3.5 mph - N/A   Clear
2:50 PM 73.4 °F 46.4 °F 38% 30.18 in - Variable 3.5 mph - N/A   Clear
3:20 PM 75.2 °F 46.4 °F 36% 30.18 in - NW 5.8 mph - N/A   Clear
3:50 PM 76 °F 48 °F 26% 30.19 in 19 mi WNW 6.9 mph - -  
3:50 PM 75.2 °F 46.4 °F 36% 30.18 in - Variable 8.1 mph 23.0 mph N/A   Clear
4:20 PM 75.2 °F 46.4 °F 36% 30.18 in - Variable 3.5 mph - N/A   Clear
4:50 PM 74 °F 49 °F 30% 30.19 in 16 mi NE 4.6 mph - -  
4:50 PM 75.2 °F 48.2 °F 38% 30.18 in - North 4.6 mph - N/A   Clear
5:20 PM 73.4 °F 50.0 °F 44% 30.18 in - Variable 3.5 mph - N/A   Clear
5:50 PM 75 °F 51 °F 31% 30.18 in 15 mi NW 4.6 mph - -   Scattered Clouds
5:50 PM 73.4 °F 50.0 °F 44% 30.18 in - Variable 3.5 mph - N/A   Clear
6:20 PM 73.4 °F 50.0 °F 44% 30.18 in - Variable 3.5 mph - N/A   Clear
6:50 PM 73 °F 50 °F 33% 30.18 in 17 mi NNW 3.5 mph - -  
6:50 PM 73.4 °F 50.0 °F 44% 30.18 in - NW 4.6 mph - N/A   Clear
7:20 PM 71.6 °F 48.2 °F 43% 30.18 in - Variable 3.5 mph - N/A   Clear
7:50 PM 71.6 °F 48.2 °F 43% 30.18 in - NW 2.3 mph - N/A   Clear
8:20 PM 71.6 °F 48.2 °F 43% 30.18 in - NNW 2.3 mph - N/A   Clear
8:50 PM 70 °F 51 °F 39% 30.19 in 15 mi NW 2.3 mph - -  
8:50 PM 71.6 °F 48.2 °F 43% 30.18 in - North 2.3 mph - N/A   Clear
9:20 PM 69.8 °F 50.0 °F 49% 30.18 in - NW 2.3 mph - N/A   Clear
9:50 PM 67 °F 53 °F 51% 30.19 in 12 mi SSW 6.9 mph - -  
9:50 PM 66.2 °F 53.6 °F 64% 30.18 in - SSW 6.9 mph - N/A   Clear
10:20 PM 66.2 °F 53.6 °F 64% 30.18 in - West 8.1 mph - N/A   Clear
10:50 PM 64.4 °F 53.6 °F 68% 30.18 in - West 8.1 mph - N/A   Clear
11:20 PM 64.4 °F 53.6 °F 68% 30.21 in - WNW 3.5 mph - N/A   Clear
11:50 PM 64.4 °F 53.6 °F 68% 30.21 in 6.2 mi West 3.5 mph - N/A   Partly Cloudy